"read_dt","SO2 (ppb)","flags","PMT voltage (V)","lamp voltage (V)","lamp intensity (Hz)","internal temp (C)","react chamber temp (C)","sample flow (l/min)","pres (mmHg)","SO2 bkg (ppb)","SO2 coefficient"
2016-04-26 00:00:00,2150E-3,5C000400,-0724,0837,12165,029.4,045.5,0.252,763.4,01.16,0.508
2016-04-26 00:01:00,2257E-3,5C000400,-0724,0838,12109,029.3,045.5,0.253,763.4,01.16,0.508
2016-04-26 00:02:00,2221E-3,5C000400,-0724,0837,12141,029.4,045.5,0.253,763.4,01.16,0.508
2016-04-26 00:03:00,2166E-3,5C000400,-0724,0837,12131,029.3,045.5,0.252,763.3,01.16,0.508
2016-04-26 00:04:00,2215E-3,5C000400,-0724,0838,12225,029.3,045.5,0.253,763.4,01.16,0.508
2016-04-26 00:05:00,2199E-3,5C000400,-0724,0837,12107,029.4,045.5,0.253,763.2,01.16,0.508
2016-04-26 00:06:00,2100E-3,5C000400,-0724,0837,12056,029.4,045.5,0.252,763.5,01.16,0.508
2016-04-26 00:07:00,2240E-3,5C000400,-0724,0837,12155,029.3,045.5,0.253,763.4,01.16,0.508
2016-04-26 00:08:00,2214E-3,5C000400,-0724,0838,12114,029.3,045.5,0.253,763.3,01.16,0.508
2016-04-26 00:09:00,2235E-3,5C000400,-0724,0838,12062,029.3,045.5,0.253,763.3,01.16,0.508
2016-04-26 00:10:00,2178E-3,5C000400,-0724,0837,12120,029.3,045.5,0.253,763.4,01.16,0.508
2016-04-26 00:11:00,2164E-3,5C000400,-0724,0836,12029,029.3,045.5,0.253,763.4,01.16,0.508
2016-04-26 00:12:00,2238E-3,5C000400,-0724,0837,12039,029.3,045.5,0.252,763.6,01.16,0.508
2016-04-26 00:13:00,2279E-3,5C000400,-0724,0837,12080,029.3,045.5,0.253,763.7,01.16,0.508
2016-04-26 00:14:00,2168E-3,5C000400,-0724,0837,12212,029.3,045.5,0.253,763.5,01.16,0.508
2016-04-26 00:15:00,2160E-3,5C000400,-0724,0837,12052,029.3,045.5,0.252,763.5,01.16,0.508
2016-04-26 00:16:00,2234E-3,5C000400,-0724,0837,12066,029.4,045.5,0.253,763.5,01.16,0.508
2016-04-26 00:17:00,2157E-3,5C000400,-0724,0837,12098,029.3,045.5,0.252,763.5,01.16,0.508
2016-04-26 00:18:00,2191E-3,5C000400,-0724,0837,12133,029.3,045.5,0.253,763.6,01.16,0.508
2016-04-26 00:19:00,2174E-3,5C000400,-0724,0837,12001,029.3,045.5,0.253,763.5,01.16,0.508
2016-04-26 00:20:00,2074E-3,5C000400,-0724,0837,12016,029.3,045.5,0.253,763.6,01.16,0.508
2016-04-26 00:21:00,2149E-3,5C000400,-0724,0837,12120,029.3,045.5,0.253,763.4,01.16,0.508
2016-04-26 00:22:00,2123E-3,5C000400,-0724,0837,12159,029.3,045.5,0.253,763.4,01.16,0.508
2016-04-26 00:23:00,2168E-3,5C000400,-0724,0837,12085,029.3,045.5,0.252,763.4,01.16,0.508
2016-04-26 00:24:00,2037E-3,5C000400,-0724,0837,12085,029.3,045.5,0.253,763.4,01.16,0.508
2016-04-26 00:25:00,2142E-3,5C000400,-0724,0837,12185,029.3,045.5,0.253,763.4,01.16,0.508
2016-04-26 00:26:00,2286E-3,5C000400,-0724,0837,12087,029.3,045.5,0.252,763.3,01.16,0.508
2016-04-26 00:27:00,2110E-3,5C000400,-0724,0837,12128,029.3,045.5,0.253,763.4,01.16,0.508
2016-04-26 00:28:00,2256E-3,5C000400,-0724,0837,12206,029.3,045.5,0.252,763.3,01.16,0.508
2016-04-26 00:29:00,2158E-3,5C000400,-0724,0836,11971,029.3,045.5,0.252,763.3,01.16,0.508
2016-04-26 00:30:00,2054E-3,5C000400,-0724,0837,12040,029.2,045.5,0.253,763.1,01.16,0.508
2016-04-26 00:31:00,2179E-3,5C000400,-0724,0837,12213,029.2,045.5,0.253,763.3,01.16,0.508
2016-04-26 00:32:00,2251E-3,5C000400,-0724,0837,12113,029.2,045.5,0.253,763.3,01.16,0.508
2016-04-26 00:33:00,2290E-3,5C000400,-0724,0838,12134,029.2,045.5,0.253,763.4,01.16,0.508
2016-04-26 00:34:00,2257E-3,5C000400,-0724,0838,12229,029.2,045.5,0.253,763.4,01.16,0.508
2016-04-26 00:35:00,2277E-3,5C000400,-0724,0837,12242,029.3,045.5,0.253,763.5,01.16,0.508
2016-04-26 00:36:00,2194E-3,5C000400,-0724,0837,12090,029.2,045.5,0.253,763.4,01.16,0.508
2016-04-26 00:37:00,2168E-3,5C000400,-0724,0837,12136,029.2,045.5,0.253,763.4,01.16,0.508
2016-04-26 00:38:00,2160E-3,5C000400,-0724,0837,12165,029.2,045.5,0.253,763.4,01.16,0.508
2016-04-26 00:39:00,2209E-3,5C000400,-0724,0837,12096,029.3,045.5,0.253,763.5,01.16,0.508
2016-04-26 00:40:00,2169E-3,5C000400,-0724,0838,12151,029.2,045.5,0.253,763.5,01.16,0.508
2016-04-26 00:41:00,2261E-3,5C000400,-0724,0837,12054,029.3,045.5,0.253,763.5,01.16,0.508
2016-04-26 00:42:00,2133E-3,5C000400,-0724,0837,12069,029.2,045.5,0.253,763.5,01.16,0.508
2016-04-26 00:43:00,2069E-3,5C000400,-0724,0837,12016,029.2,045.5,0.252,763.5,01.16,0.508
2016-04-26 00:44:00,2253E-3,5C000400,-0724,0837,12094,029.2,045.4,0.253,763.5,01.16,0.508
2016-04-26 00:45:00,2063E-3,5C000400,-0724,0836,12140,029.2,045.5,0.253,763.4,01.16,0.508
2016-04-26 00:46:00,2286E-3,5C000400,-0724,0837,12184,029.3,045.5,0.252,763.4,01.16,0.508
2016-04-26 00:47:00,2212E-3,5C000400,-0724,0837,12066,029.2,045.5,0.253,763.5,01.16,0.508
2016-04-26 00:48:00,2226E-3,5C000400,-0724,0837,12042,029.2,045.5,0.253,763.7,01.16,0.508
2016-04-26 00:49:00,2184E-3,5C000400,-0724,0837,12152,029.2,045.5,0.252,763.4,01.16,0.508
2016-04-26 00:50:00,2129E-3,5C000400,-0724,0837,12043,029.2,045.5,0.253,763.4,01.16,0.508
2016-04-26 00:51:00,2179E-3,5C000400,-0724,0836,11989,029.2,045.5,0.253,763.5,01.16,0.508
2016-04-26 00:52:00,2129E-3,5C000400,-0724,0837,12161,029.2,045.5,0.252,763.5,01.16,0.508
2016-04-26 00:53:00,2204E-3,5C000400,-0724,0837,12115,029.2,045.5,0.253,763.5,01.16,0.508
2016-04-26 00:54:00,2225E-3,5C000400,-0724,0836,12174,029.2,045.5,0.253,763.5,01.16,0.508
2016-04-26 00:55:00,2213E-3,5C000400,-0724,0836,12066,029.2,045.5,0.253,763.5,01.16,0.508
2016-04-26 00:56:00,2195E-3,5C000400,-0724,0837,12093,029.2,045.5,0.253,763.5,01.16,0.508
2016-04-26 00:57:00,2064E-3,5C000400,-0724,0837,12179,029.2,045.5,0.253,763.6,01.16,0.508
2016-04-26 00:58:00,2063E-3,5C000400,-0724,0837,12011,029.2,045.5,0.253,763.6,01.16,0.508
2016-04-26 00:59:00,2105E-3,5C000400,-0724,0837,12176,029.2,045.5,0.253,763.4,01.16,0.508
2016-04-26 01:00:00,2093E-3,5C000400,-0724,0837,12049,029.2,045.5,0.253,763.6,01.16,0.508
2016-04-26 01:01:00,2194E-3,5C000400,-0724,0837,12230,029.2,045.5,0.253,763.5,01.16,0.508
2016-04-26 01:02:00,2282E-3,5C000400,-0724,0837,12156,029.2,045.4,0.253,763.6,01.16,0.508
2016-04-26 01:03:00,2064E-3,5C000400,-0724,0837,12126,029.2,045.5,0.253,763.6,01.16,0.508
2016-04-26 01:04:00,2218E-3,5C000400,-0724,0838,12250,029.2,045.5,0.253,763.4,01.16,0.508
2016-04-26 01:05:00,2192E-3,5C000400,-0724,0837,12074,029.2,045.5,0.253,763.6,01.16,0.508
2016-04-26 01:06:00,2226E-3,5C000400,-0724,0836,12162,029.2,045.5,0.253,763.5,01.16,0.508
2016-04-26 01:07:00,2201E-3,5C000400,-0724,0837,12142,029.1,045.5,0.253,763.4,01.16,0.508
2016-04-26 01:08:00,2153E-3,5C000400,-0724,0837,12182,029.1,045.5,0.253,763.4,01.16,0.508
2016-04-26 01:09:00,2218E-3,5C000400,-0724,0837,11965,029.2,045.5,0.253,763.2,01.16,0.508
2016-04-26 01:10:00,2256E-3,5C000400,-0724,0836,12090,029.1,045.5,0.254,763.2,01.16,0.508
2016-04-26 01:11:00,2220E-3,5C000400,-0724,0836,12224,029.1,045.5,0.253,763.5,01.16,0.508
2016-04-26 01:12:00,2070E-3,5C000400,-0724,0837,12064,029.1,045.5,0.253,763.5,01.16,0.508
2016-04-26 01:13:00,2181E-3,5C000400,-0724,0837,12063,029.1,045.5,0.253,763.6,01.16,0.508
2016-04-26 01:14:00,2249E-3,5C000400,-0724,0836,12040,029.1,045.5,0.253,763.6,01.16,0.508
2016-04-26 01:15:00,2039E-3,5C000400,-0724,0837,12144,029.1,045.5,0.253,763.5,01.16,0.508
2016-04-26 01:16:00,2101E-3,5C000400,-0724,0837,12080,029.1,045.5,0.253,763.5,01.16,0.508
2016-04-26 01:17:00,2245E-3,5C000400,-0724,0837,12187,029.1,045.5,0.253,763.6,01.16,0.508
2016-04-26 01:18:00,2187E-3,5C000400,-0724,0837,12265,029.0,045.5,0.253,763.6,01.16,0.508
2016-04-26 01:19:00,2240E-3,5C000400,-0724,0837,11918,029.1,045.5,0.253,763.5,01.16,0.508
2016-04-26 01:20:00,2201E-3,5C000400,-0724,0838,12187,029.0,045.5,0.253,763.4,01.16,0.508
2016-04-26 01:21:00,2206E-3,5C000400,-0724,0837,12122,029.1,045.5,0.253,763.5,01.16,0.508
2016-04-26 01:22:00,2145E-3,5C000400,-0724,0837,12143,029.1,045.5,0.253,763.5,01.16,0.508
2016-04-26 01:23:00,2204E-3,5C000400,-0724,0837,12227,029.1,045.5,0.253,763.3,01.16,0.508
2016-04-26 01:24:00,2272E-3,5C000400,-0724,0837,12149,029.1,045.5,0.253,763.4,01.16,0.508
2016-04-26 01:25:00,2099E-3,5C000400,-0724,0837,12131,029.1,045.5,0.253,763.4,01.16,0.508
2016-04-26 01:26:00,2101E-3,5C000400,-0724,0837,11962,029.1,045.5,0.253,763.4,01.16,0.508
2016-04-26 01:27:00,2223E-3,5C000400,-0724,0838,12177,029.1,045.5,0.253,763.4,01.16,0.508
2016-04-26 01:28:00,2129E-3,5C000400,-0724,0837,12097,029.1,045.5,0.253,763.3,01.16,0.508
2016-04-26 01:29:00,2230E-3,5C000400,-0724,0837,11995,029.1,045.5,0.253,763.3,01.16,0.508
2016-04-26 01:30:00,2206E-3,5C000400,-0724,0837,12012,029.0,045.5,0.253,763.3,01.16,0.508
2016-04-26 01:31:00,2057E-3,5C000400,-0724,0837,11944,029.0,045.5,0.253,763.4,01.16,0.508
2016-04-26 01:32:00,2161E-3,5C000400,-0724,0836,12034,029.0,045.5,0.253,763.3,01.16,0.508
2016-04-26 01:33:00,2332E-3,5C000400,-0724,0837,12181,029.0,045.5,0.253,763.5,01.16,0.508
2016-04-26 01:34:00,2261E-3,5C000400,-0724,0837,12160,029.0,045.5,0.253,763.5,01.16,0.508
2016-04-26 01:35:00,2162E-3,5C000400,-0724,0838,12229,029.0,045.5,0.253,763.4,01.16,0.508
2016-04-26 01:36:00,2306E-3,5C000400,-0724,0837,11961,029.0,045.5,0.253,763.4,01.16,0.508
2016-04-26 01:37:00,2020E-3,5C000400,-0724,0837,12118,029.0,045.5,0.253,763.4,01.16,0.508
2016-04-26 01:38:00,2109E-3,5C000400,-0724,0837,12132,029.0,045.5,0.253,763.4,01.16,0.508
2016-04-26 01:39:00,2040E-3,5C000400,-0724,0838,12076,029.0,045.5,0.253,763.4,01.16,0.508
2016-04-26 01:40:00,2174E-3,5C000400,-0724,0837,12172,029.0,045.5,0.253,763.4,01.16,0.508
2016-04-26 01:41:00,2085E-3,5C000400,-0724,0838,12193,029.0,045.5,0.254,763.5,01.16,0.508
2016-04-26 01:42:00,2209E-3,5C000400,-0724,0837,12194,029.0,045.5,0.253,763.4,01.16,0.508
2016-04-26 01:43:00,2114E-3,5C000400,-0724,0837,12126,028.9,045.5,0.253,763.4,01.16,0.508
2016-04-26 01:44:00,2019E-3,5C000400,-0724,0837,12193,028.9,045.5,0.253,763.3,01.16,0.508
2016-04-26 01:45:00,2147E-3,5C000400,-0724,0837,12117,028.9,045.5,0.254,763.4,01.16,0.508
2016-04-26 01:46:00,2224E-3,5C000400,-0724,0837,12078,028.9,045.5,0.253,763.5,01.16,0.508
2016-04-26 01:47:00,2167E-3,5C000400,-0724,0837,12144,028.9,045.5,0.253,763.5,01.16,0.508
2016-04-26 01:48:00,2119E-3,5C000400,-0724,0837,12130,028.9,045.5,0.253,763.5,01.16,0.508
2016-04-26 01:49:00,2263E-3,5C000400,-0724,0836,12095,028.9,045.5,0.254,763.6,01.16,0.508
2016-04-26 01:50:00,2224E-3,5C000400,-0724,0837,12106,028.9,045.5,0.253,763.4,01.16,0.508
2016-04-26 01:51:00,2240E-3,5C000400,-0724,0837,12068,028.9,045.5,0.253,763.5,01.16,0.508
2016-04-26 01:52:00,2216E-3,5C000400,-0724,0836,11973,028.9,045.5,0.253,763.5,01.16,0.508
2016-04-26 01:53:00,2222E-3,5C000400,-0724,0837,12120,028.9,045.5,0.253,763.5,01.16,0.508
2016-04-26 01:54:00,2164E-3,5C000400,-0724,0837,12197,028.9,045.4,0.253,763.5,01.16,0.508
2016-04-26 01:55:00,2076E-3,5C000400,-0724,0837,12226,028.9,045.5,0.253,763.4,01.16,0.508
2016-04-26 01:56:00,2247E-3,5C000400,-0724,0837,11921,028.9,045.4,0.254,763.5,01.16,0.508
2016-04-26 01:57:00,2147E-3,5C000400,-0724,0837,12117,028.9,045.4,0.253,763.5,01.16,0.508
2016-04-26 01:58:00,2094E-3,5C000400,-0724,0837,12155,028.9,045.5,0.253,763.3,01.16,0.508
2016-04-26 01:59:00,2182E-3,5C000400,-0724,0837,12230,028.9,045.5,0.253,763.4,01.16,0.508
2016-04-26 02:00:00,2090E-3,5C000400,-0724,0837,12139,028.9,045.5,0.253,763.2,01.16,0.508
2016-04-26 02:01:00,2158E-3,5C000400,-0724,0836,12171,028.9,045.5,0.253,763.4,01.16,0.508
2016-04-26 02:02:00,2244E-3,5C000400,-0724,0837,12212,028.9,045.5,0.253,763.3,01.16,0.508
2016-04-26 02:03:00,2161E-3,5C000400,-0724,0837,12129,028.9,045.5,0.254,763.3,01.16,0.508
2016-04-26 02:04:00,2143E-3,5C000400,-0724,0836,12179,028.9,045.5,0.254,763.4,01.16,0.508
2016-04-26 02:05:00,2156E-3,5C000400,-0724,0837,12067,028.9,045.5,0.253,763.3,01.16,0.508
2016-04-26 02:06:00,2149E-3,5C000400,-0724,0836,12086,028.8,045.5,0.253,763.3,01.16,0.508
2016-04-26 02:07:00,2133E-3,5C000400,-0724,0837,12082,028.8,045.5,0.253,763.3,01.16,0.508
2016-04-26 02:08:00,2158E-3,5C000400,-0724,0837,12194,028.8,045.5,0.254,763.3,01.16,0.508
2016-04-26 02:09:00,2145E-3,5C000400,-0724,0837,12090,028.8,045.5,0.254,763.3,01.16,0.508
2016-04-26 02:10:00,2156E-3,5C000400,-0724,0837,11975,028.9,045.5,0.254,763.2,01.16,0.508
2016-04-26 02:11:00,2151E-3,5C000400,-0724,0837,12154,028.9,045.5,0.253,763.3,01.16,0.508
2016-04-26 02:12:00,2131E-3,5C000400,-0724,0837,12007,028.9,045.5,0.254,763.3,01.16,0.508
2016-04-26 02:13:00,2079E-3,5C000400,-0724,0836,12191,028.9,045.5,0.254,763.2,01.16,0.508
2016-04-26 02:14:00,2147E-3,5C000400,-0724,0836,12066,028.9,045.5,0.253,763.3,01.16,0.508
2016-04-26 02:15:00,2186E-3,5C000400,-0724,0837,12112,028.9,045.5,0.253,763.2,01.16,0.508
2016-04-26 02:16:00,2064E-3,5C000400,-0724,0836,12018,028.8,045.5,0.254,763.1,01.16,0.508
2016-04-26 02:17:00,2153E-3,5C000400,-0724,0837,12232,028.9,045.5,0.254,763.2,01.16,0.508
2016-04-26 02:18:00,2078E-3,5C000400,-0724,0837,12061,028.8,045.5,0.253,763.2,01.16,0.508
2016-04-26 02:19:00,2248E-3,5C000400,-0724,0837,11981,028.8,045.5,0.253,763.1,01.16,0.508
2016-04-26 02:20:00,2183E-3,5C000400,-0724,0838,12200,028.8,045.5,0.254,763.1,01.16,0.508
2016-04-26 02:21:00,2250E-3,5C000400,-0724,0836,12157,028.8,045.5,0.254,763.1,01.16,0.508
2016-04-26 02:22:00,2211E-3,5C000400,-0724,0837,12252,028.8,045.5,0.253,763.0,01.16,0.508
2016-04-26 02:23:00,2138E-3,5C000400,-0724,0836,12166,028.8,045.5,0.253,763.1,01.16,0.508
2016-04-26 02:24:00,2239E-3,5C000400,-0724,0837,11934,028.8,045.5,0.254,763.1,01.16,0.508
2016-04-26 02:25:00,2244E-3,5C000400,-0724,0836,12066,028.8,045.5,0.254,763.2,01.16,0.508
2016-04-26 02:26:00,2269E-3,5C000400,-0724,0836,12246,028.8,045.5,0.253,763.2,01.16,0.508
2016-04-26 02:27:00,2098E-3,5C000400,-0724,0837,12174,028.8,045.5,0.253,763.2,01.16,0.508
2016-04-26 02:28:00,2190E-3,5C000400,-0724,0837,12103,028.8,045.5,0.254,763.2,01.16,0.508
2016-04-26 02:29:00,2210E-3,5C000400,-0724,0837,12224,028.8,045.5,0.254,763.1,01.16,0.508
2016-04-26 02:30:00,2195E-3,5C000400,-0724,0837,11965,028.8,045.5,0.253,763.2,01.16,0.508
2016-04-26 02:31:00,2077E-3,5C000400,-0724,0837,12204,028.8,045.5,0.253,763.2,01.16,0.508
2016-04-26 02:32:00,2183E-3,5C000400,-0724,0837,12205,028.8,045.4,0.254,763.0,01.16,0.508
2016-04-26 02:33:00,2134E-3,5C000400,-0724,0837,12132,028.8,045.4,0.254,763.2,01.16,0.508
2016-04-26 02:34:00,2185E-3,5C000400,-0724,0837,12067,028.8,045.5,0.253,763.2,01.16,0.508
2016-04-26 02:35:00,2023E-3,5C000400,-0724,0837,11933,028.8,045.5,0.253,763.2,01.16,0.508
2016-04-26 02:36:00,2197E-3,5C000400,-0724,0837,12163,028.8,045.5,0.254,763.1,01.16,0.508
2016-04-26 02:37:00,2080E-3,5C000400,-0724,0837,12215,028.8,045.5,0.254,763.2,01.16,0.508
2016-04-26 02:38:00,1982E-3,5C000400,-0724,0837,12079,028.8,045.4,0.253,763.3,01.16,0.508
2016-04-26 02:39:00,2084E-3,5C000400,-0724,0837,12124,028.8,045.4,0.253,763.2,01.16,0.508
2016-04-26 02:40:00,2210E-3,5C000400,-0724,0837,12241,028.8,045.5,0.253,763.2,01.16,0.508
2016-04-26 02:41:00,2147E-3,5C000400,-0724,0837,12164,028.8,045.5,0.254,763.2,01.16,0.508
2016-04-26 02:42:00,2184E-3,5C000400,-0724,0836,12136,028.7,045.4,0.254,763.2,01.16,0.508
2016-04-26 02:43:00,2131E-3,5C000400,-0724,0836,12212,028.8,045.5,0.253,763.2,01.16,0.508
2016-04-26 02:44:00,2115E-3,5C000400,-0724,0836,12071,028.8,045.5,0.253,763.2,01.16,0.508
2016-04-26 02:45:00,2075E-3,5C000400,-0724,0837,12040,028.7,045.5,0.254,763.2,01.16,0.508
2016-04-26 02:46:00,2288E-3,5C000400,-0724,0837,12141,028.7,045.4,0.254,763.3,01.16,0.508
2016-04-26 02:47:00,2058E-3,5C000400,-0724,0836,12244,028.7,045.5,0.254,763.2,01.16,0.508
2016-04-26 02:48:00,2200E-3,5C000400,-0724,0837,12258,028.7,045.5,0.253,763.2,01.16,0.508
2016-04-26 02:49:00,2199E-3,5C000400,-0724,0836,12218,028.7,045.5,0.253,763.1,01.16,0.508
2016-04-26 02:50:00,2038E-3,5C000400,-0724,0837,12130,028.7,045.5,0.254,763.2,01.16,0.508
2016-04-26 02:51:00,2054E-3,5C000400,-0724,0837,12088,028.8,045.5,0.254,763.2,01.16,0.508
2016-04-26 02:52:00,2280E-3,5C000400,-0724,0837,12026,028.7,045.5,0.254,763.2,01.16,0.508
2016-04-26 02:53:00,2104E-3,5C000400,-0724,0836,12243,028.7,045.4,0.253,763.2,01.16,0.508
2016-04-26 02:54:00,2165E-3,5C000400,-0724,0837,12110,028.7,045.4,0.254,763.2,01.16,0.508
2016-04-26 02:55:00,2167E-3,5C000400,-0724,0837,12147,028.7,045.5,0.254,763.1,01.16,0.508
2016-04-26 02:56:00,2163E-3,5C000400,-0724,0837,12084,028.7,045.5,0.254,763.3,01.16,0.508
2016-04-26 02:57:00,2195E-3,5C000400,-0724,0836,12127,028.7,045.5,0.254,763.2,01.16,0.508
2016-04-26 02:58:00,2144E-3,5C000400,-0724,0837,12209,028.7,045.5,0.253,763.1,01.16,0.508
2016-04-26 02:59:00,2107E-3,5C000400,-0724,0837,12115,028.7,045.5,0.254,763.2,01.16,0.508
2016-04-26 03:00:00,2231E-3,5C000400,-0724,0837,11975,028.7,045.5,0.254,763.2,01.16,0.508
2016-04-26 03:01:00,2220E-3,5C000400,-0724,0837,12296,028.7,045.5,0.254,763.3,01.16,0.508
2016-04-26 03:02:00,2034E-3,5C000400,-0724,0836,12135,028.7,045.5,0.253,763.4,01.16,0.508
2016-04-26 03:03:00,2205E-3,5C000400,-0724,0837,12199,028.7,045.5,0.254,763.4,01.16,0.508
2016-04-26 03:04:00,2136E-3,5C000400,-0724,0836,12212,028.7,045.5,0.254,763.4,01.16,0.508
2016-04-26 03:05:00,2031E-3,5C000400,-0724,0837,12000,028.7,045.5,0.254,763.4,01.16,0.508
2016-04-26 03:06:00,2186E-3,5C000400,-0724,0837,12102,028.7,045.4,0.253,763.4,01.16,0.508
2016-04-26 03:07:00,2246E-3,5C000400,-0724,0836,12174,028.7,045.5,0.254,763.3,01.16,0.508
2016-04-26 03:08:00,2184E-3,5C000400,-0724,0837,12116,028.7,045.5,0.254,763.4,01.16,0.508
2016-04-26 03:09:00,2102E-3,5C000400,-0724,0837,12109,028.7,045.5,0.254,763.3,01.16,0.508
2016-04-26 03:10:00,2295E-3,5C000400,-0724,0837,12111,028.7,045.5,0.254,763.4,01.16,0.508
2016-04-26 03:11:00,2131E-3,5C000400,-0724,0837,11958,028.7,045.5,0.254,763.4,01.16,0.508
2016-04-26 03:12:00,2168E-3,5C000400,-0724,0837,12113,028.7,045.4,0.253,763.4,01.16,0.508
2016-04-26 03:13:00,2153E-3,5C000400,-0724,0836,12126,028.7,045.5,0.254,763.4,01.16,0.508
2016-04-26 03:14:00,2173E-3,5C000400,-0724,0836,12214,028.7,045.5,0.254,763.4,01.16,0.508
2016-04-26 03:15:00,2139E-3,5C000400,-0724,0836,12090,028.6,045.5,0.254,763.3,01.16,0.508
2016-04-26 03:16:00,2069E-3,5C000400,-0724,0837,12148,028.7,045.5,0.254,763.4,01.16,0.508
2016-04-26 03:17:00,2121E-3,5C000400,-0724,0836,12079,028.7,045.5,0.253,763.4,01.16,0.508
2016-04-26 03:18:00,2250E-3,5C000400,-0724,0836,12058,028.7,045.5,0.254,763.4,01.16,0.508
2016-04-26 03:19:00,2236E-3,5C000400,-0724,0836,12205,028.7,045.5,0.254,763.2,01.16,0.508
2016-04-26 03:20:00,2220E-3,5C000400,-0724,0836,12068,028.7,045.5,0.254,763.3,01.16,0.508
2016-04-26 03:21:00,2039E-3,5C000400,-0724,0837,12145,028.7,045.5,0.254,763.4,01.16,0.508
2016-04-26 03:22:00,2234E-3,5C000400,-0724,0837,12048,028.7,045.5,0.253,763.4,01.16,0.508
2016-04-26 03:23:00,2192E-3,5C000400,-0724,0836,12179,028.7,045.5,0.254,763.4,01.16,0.508
2016-04-26 03:24:00,2213E-3,5C000400,-0724,0837,12316,028.7,045.4,0.254,763.5,01.16,0.508
2016-04-26 03:25:00,2256E-3,5C000400,-0724,0837,12093,028.7,045.5,0.254,763.5,01.16,0.508
2016-04-26 03:26:00,2201E-3,5C000400,-0724,0837,12147,028.7,045.5,0.254,763.4,01.16,0.508
2016-04-26 03:27:00,2111E-3,5C000400,-0724,0836,12208,028.7,045.4,0.254,763.4,01.16,0.508
2016-04-26 03:28:00,2303E-3,5C000400,-0724,0836,11964,028.7,045.5,0.254,763.4,01.16,0.508
2016-04-26 03:29:00,2070E-3,5C000400,-0724,0836,12194,028.7,045.4,0.254,763.3,01.16,0.508
2016-04-26 03:30:00,2218E-3,5C000400,-0724,0837,12242,028.7,045.4,0.254,763.3,01.16,0.508
2016-04-26 03:31:00,2180E-3,5C000400,-0724,0835,12080,028.7,045.5,0.253,763.3,01.16,0.508
2016-04-26 03:32:00,2171E-3,5C000400,-0724,0836,12222,028.7,045.5,0.254,763.3,01.16,0.508
2016-04-26 03:33:00,2104E-3,5C000400,-0724,0838,12162,028.7,045.4,0.254,763.3,01.16,0.508
2016-04-26 03:34:00,2164E-3,5C000400,-0724,0836,12054,028.7,045.4,0.254,763.3,01.16,0.508
2016-04-26 03:35:00,2083E-3,5C000400,-0724,0837,12064,028.6,045.5,0.254,763.3,01.16,0.508
2016-04-26 03:36:00,2258E-3,5C000400,-0724,0837,12093,028.6,045.5,0.254,763.4,01.16,0.508
2016-04-26 03:37:00,2227E-3,5C000400,-0724,0836,12086,028.6,045.5,0.253,763.3,01.16,0.508
2016-04-26 03:38:00,2105E-3,5C000400,-0724,0836,12082,028.6,045.5,0.254,763.3,01.16,0.508
2016-04-26 03:39:00,2116E-3,5C000400,-0724,0837,11988,028.7,045.5,0.254,763.4,01.16,0.508
2016-04-26 03:40:00,2128E-3,5C000400,-0724,0837,11087,028.6,045.4,0.254,763.4,01.16,0.508
2016-04-26 03:41:00,2183E-3,5C000400,-0724,0837,12101,028.6,045.4,0.254,763.4,01.16,0.508
2016-04-26 03:42:00,2045E-3,5C000400,-0724,0837,12068,028.6,045.5,0.254,763.4,01.16,0.508
2016-04-26 03:43:00,2158E-3,5C000400,-0724,0837,12075,028.6,045.4,0.254,763.4,01.16,0.508
2016-04-26 03:44:00,2090E-3,5C000400,-0724,0837,12058,028.6,045.4,0.254,763.3,01.16,0.508
2016-04-26 03:45:00,2073E-3,5C000400,-0724,0837,12139,028.6,045.5,0.254,763.3,01.16,0.508
2016-04-26 03:46:00,2364E-3,5C000400,-0724,0836,12182,028.7,045.5,0.254,763.3,01.16,0.508
2016-04-26 03:47:00,2279E-3,5C000400,-0724,0837,12112,028.6,045.5,0.254,763.4,01.16,0.508
2016-04-26 03:48:00,2146E-3,5C000400,-0724,0836,11127,028.6,045.5,0.254,763.4,01.16,0.508
2016-04-26 03:49:00,2240E-3,5C000400,-0724,0837,12126,028.7,045.4,0.254,763.4,01.16,0.508
2016-04-26 03:50:00,2178E-3,5C000400,-0724,0836,12192,028.7,045.5,0.254,763.3,01.16,0.508
2016-04-26 03:51:00,2200E-3,5C000400,-0724,0836,12076,028.7,045.5,0.254,763.4,01.16,0.508
2016-04-26 03:52:00,2228E-3,5C000400,-0724,0837,12065,028.6,045.5,0.254,763.3,01.16,0.508
2016-04-26 03:53:00,2212E-3,5C000400,-0724,0837,12208,028.6,045.5,0.254,763.3,01.16,0.508
2016-04-26 03:54:00,2195E-3,5C000400,-0724,0838,12169,028.6,045.5,0.254,763.4,01.16,0.508
2016-04-26 03:55:00,2180E-3,5C000400,-0724,0836,12075,028.6,045.5,0.254,763.4,01.16,0.508
2016-04-26 03:56:00,2306E-3,5C000400,-0724,0836,12136,028.7,045.5,0.254,763.3,01.16,0.508
2016-04-26 03:57:00,2169E-3,5C000400,-0724,0837,12109,028.6,045.4,0.254,763.4,01.16,0.508
2016-04-26 03:58:00,2117E-3,5C000400,-0724,0838,12117,028.6,045.5,0.254,763.4,01.16,0.508
2016-04-26 03:59:00,1981E-3,5C000400,-0724,0838,11985,028.6,045.4,0.254,763.4,01.16,0.508
2016-04-26 04:00:00,2171E-3,5C000400,-0724,0836,12193,028.6,045.4,0.254,763.4,01.16,0.508
2016-04-26 04:01:00,2169E-3,5C000400,-0724,0837,12220,028.6,045.5,0.253,763.4,01.16,0.508
2016-04-26 04:02:00,2059E-3,5C000400,-0724,0837,12175,028.6,045.5,0.254,763.4,01.16,0.508
2016-04-26 04:03:00,2139E-3,5C000400,-0724,0837,12270,028.7,045.5,0.254,763.4,01.16,0.508
2016-04-26 04:04:00,2135E-3,5C000400,-0724,0838,12103,028.6,045.5,0.254,763.5,01.16,0.508
2016-04-26 04:05:00,2220E-3,5C000400,-0724,0837,12250,028.6,045.4,0.254,763.5,01.16,0.508
2016-04-26 04:06:00,2235E-3,5C000400,-0724,0836,12023,028.7,045.4,0.254,763.4,01.16,0.508
2016-04-26 04:07:00,2255E-3,5C000400,-0724,0837,12098,028.7,045.4,0.254,763.4,01.16,0.508
2016-04-26 04:08:00,2226E-3,5C000400,-0724,0836,12032,028.7,045.4,0.255,763.4,01.16,0.508
2016-04-26 04:09:00,2197E-3,5C000400,-0724,0837,12021,028.7,045.5,0.254,763.4,01.16,0.508
2016-04-26 04:10:00,2258E-3,5C000400,-0724,0837,12066,028.6,045.5,0.254,763.4,01.16,0.508
2016-04-26 04:11:00,2100E-3,5C000400,-0724,0836,12189,028.6,045.5,0.254,763.4,01.16,0.508
2016-04-26 04:12:00,2079E-3,5C000400,-0724,0837,12158,028.6,045.4,0.254,763.4,01.16,0.508
2016-04-26 04:13:00,2138E-3,5C000400,-0724,0836,12174,028.6,045.5,0.254,763.4,01.16,0.508
2016-04-26 04:14:00,2133E-3,5C000400,-0724,0837,12142,028.6,045.5,0.254,763.4,01.16,0.508
2016-04-26 04:15:00,2309E-3,5C000400,-0724,0836,12137,028.7,045.5,0.254,763.4,01.16,0.508
2016-04-26 04:16:00,2188E-3,5C000400,-0724,0837,11991,028.6,045.5,0.253,763.4,01.16,0.508
2016-04-26 04:17:00,2147E-3,5C000400,-0724,0837,12019,028.7,045.5,0.254,763.4,01.16,0.508
2016-04-26 04:18:00,2226E-3,5C000400,-0724,0837,12128,028.6,045.5,0.254,763.4,01.16,0.508
2016-04-26 04:19:00,2179E-3,5C000400,-0724,0836,11957,028.7,045.5,0.254,763.4,01.16,0.508
2016-04-26 04:20:00,2029E-3,5C000400,-0724,0837,12021,028.6,045.5,0.254,763.4,01.16,0.508